Location: Unspecified
(33.2407°S, 0.0000°E)
Time: 13:57:21
(UTC+00:00)

CAS-4A - Visible Passes

Search period start: 18 July 2019 00:00
Search period end: 28 July 2019 00:00
Orbit: 530 x 544 km, 43.0° (Epoch: 18 July)

Date Brightness Start Highest point End Pass type
(mag) Time Alt. Az. Time Alt. Az. Time Alt. Az.
18 Jul ? 04:19:27 16° ESE 04:19:27 16° ESE 04:20:37 10° ESE visible
18 Jul ? 05:54:49 22° WSW 05:57:27 82° NNW 06:01:36 10° NE visible
19 Jul ? 04:09:57 14° ESE 04:09:57 14° ESE 04:10:42 10° E visible
19 Jul ? 05:45:19 29° WSW 05:47:17 63° NW 05:51:24 10° NE visible
20 Jul ? 04:00:31 11° E 04:00:31 11° E 04:00:46 10° E visible
20 Jul ? 05:35:53 35° W 05:37:07 47° NW 05:41:06 10° NE visible
21 Jul ? 05:26:31 35° NW 05:26:55 36° NW 05:30:44 10° NNE visible
22 Jul ? 05:17:14 26° NNW 05:17:14 26° NNW 05:20:14 10° NNE visible
23 Jul ? 05:08:00 17° NNW 05:08:00 17° NNW 05:09:35 10° N visible
25 Jul ? 18:33:01 10° NE 18:33:37 10° NE 18:33:37 10° NE visible
26 Jul ? 18:21:16 10° N 18:23:32 14° NE 18:24:26 14° ENE visible
26 Jul ? 19:59:08 10° WNW 19:59:49 15° WNW 19:59:49 15° WNW visible
27 Jul ? 18:10:19 10° N 18:13:17 19° NE 18:15:12 15° ENE visible
27 Jul ? 19:49:01 10° WNW 19:50:35 22° WNW 19:50:35 22° WNW visible
